Weather History for PAAK - August, 2013

Change the Weather History Date:

Wednesday, August 7, 2013

  Actual Average (PADK) Record (PADK)
Temperature  
Mean Temperature 50 °F -  
Max Temperature 53 °F 55 °F 78 °F (2003)
Min Temperature 48 °F 45 °F 33 °F (1996)
Degree Days  
Heating Degree Days 14    
Moisture  
Dew Point 47 °F    
Average Humidity 87    
Maximum Humidity 94    
Minimum Humidity 76    
Precipitation  
Precipitation 0.00 in - - ()
Sea Level Pressure  
Sea Level Pressure 29.64 in    
Wind  
Wind Speed 9 mph (WNW)    
Max Wind Speed 18 mph    
Max Gust Speed 25 mph    
Visibility 6 miles    
Events      
Averages and records for this station are not official NWS values.
T = Trace of Precipitation, MM = Missing Value Source: NWS Daily Summary

Daily Weather History Graph

Daily Weather History Graph

Search for Another Location

Airport or City:

Trip Planner

Search our weather history database for the weather conditions in past years. The results will help you decide how hot, cold, wet, or windy it might be!

Date:

Astronomy

Aug. 07, 2013 Rise Set
Actual Time 7:08 AM HDT 10:15 PM HDT
Civil Twilight 6:28 AM HDT 10:55 PM HDT
Nautical Twilight 5:35 AM HDT 11:48 PM HDT
Astronomical Twilight 4:24 AM HDT 12:56 AM HDT
Moon 8:26 AM HDT (8/7) 10:09 PM HDT (8/7)
Length of Visible Light 16h 27m
Length of Day
15h 07m
New Moon, 1% of the Moon is Illuminated
Aug 7
New Moon
Aug 14
First Quarter
Aug 20
Full
Aug 28
Last Quarter
Sep 5
New

Hourly Weather History & Observations

Time (HDT) Temp. Dew Point Humidity Pressure Visibility Wind Dir Wind Speed Gust Speed Precip Events Conditions
12:16 AM 48.2 °F 44.6 °F 87% 29.79 in 10.0 mi WNW 5.8 mph - N/A   Overcast
12:36 AM 48.2 °F 44.6 °F 87% 29.78 in 10.0 mi WNW 4.6 mph - N/A   Overcast
12:56 AM 48.2 °F 44.6 °F 87% 29.77 in 10.0 mi WNW 4.6 mph - N/A   Overcast
1:16 AM 48.2 °F 44.6 °F 87% 29.76 in 10.0 mi WNW 5.8 mph - N/A   Overcast
1:36 AM 48.2 °F 44.6 °F 87% 29.76 in 10.0 mi SSW 4.6 mph - N/A   Overcast
1:56 AM 50.0 °F 44.6 °F 82% 29.75 in 10.0 mi Calm Calm - N/A   Overcast
2:16 AM 50.0 °F 44.6 °F 82% 29.74 in 10.0 mi Calm Calm - N/A   Overcast
2:36 AM 50.0 °F 46.4 °F 87% 29.74 in 10.0 mi SW 4.6 mph - N/A   Overcast
2:56 AM 51.8 °F 46.4 °F 82% 29.73 in 10.0 mi WSW 9.2 mph - N/A   Overcast
3:16 AM 51.8 °F 46.4 °F 82% 29.72 in 10.0 mi SW 10.4 mph - N/A   Overcast
3:36 AM 51.8 °F 46.4 °F 82% 29.72 in 7.0 mi WSW 6.9 mph - N/A   Overcast
3:56 AM 51.8 °F 46.4 °F 82% 29.71 in 10.0 mi SW 9.2 mph - N/A   Overcast
4:16 AM 50.0 °F 46.4 °F 87% 29.70 in 5.0 mi WSW 9.2 mph - N/A   Overcast
4:36 AM 51.8 °F 48.2 °F 88% 29.70 in 9.0 mi WSW 6.9 mph - N/A   Overcast
4:56 AM 51.8 °F 48.2 °F 88% 29.69 in 7.0 mi SW 9.2 mph - N/A   Overcast
5:16 AM 51.8 °F 48.2 °F 88% 29.68 in 9.0 mi WSW 8.1 mph - N/A   Overcast
5:36 AM 51.8 °F 48.2 °F 88% 29.67 in 10.0 mi West 6.9 mph - N/A   Overcast
5:56 AM 51.8 °F 48.2 °F 88% 29.67 in 10.0 mi WSW 9.2 mph - N/A   Overcast
6:16 AM 51.8 °F 48.2 °F 88% 29.66 in 10.0 mi Calm Calm - N/A   Overcast
6:36 AM 51.8 °F 48.2 °F 88% 29.65 in 10.0 mi WSW 4.6 mph - N/A   Overcast
6:56 AM 51.8 °F 48.2 °F 88% 29.64 in 3.0 mi West 6.9 mph - N/A   Overcast
7:16 AM 51.8 °F 48.2 °F 88% 29.64 in 5.0 mi WSW 6.9 mph - N/A   Mostly Cloudy
7:36 AM 51.8 °F 48.2 °F 88% 29.64 in 4.0 mi WNW 4.6 mph - N/A   Overcast
7:56 AM 51.8 °F 48.2 °F 88% 29.63 in 1.8 mi WNW 5.8 mph - N/A   Overcast
8:16 AM 51.8 °F 48.2 °F 88% 29.63 in 2.5 mi West 6.9 mph - N/A   Overcast
8:36 AM 51.8 °F 48.2 °F 88% 29.63 in 1.8 mi WNW 10.4 mph - N/A   Overcast
8:56 AM 51.8 °F 50.0 °F 94% 29.62 in 5.0 mi WNW 8.1 mph - N/A   Overcast
9:16 AM 51.8 °F 50.0 °F 94% 29.62 in 1.2 mi WNW 8.1 mph - N/A   Overcast
9:36 AM 51.8 °F 48.2 °F 88% 29.61 in 1.8 mi WNW 11.5 mph - N/A   Overcast
9:56 AM 51.8 °F 48.2 °F 88% 29.60 in 2.0 mi WNW 13.8 mph - N/A   Overcast
10:16 AM 51.8 °F 48.2 °F 88% 29.60 in 5.0 mi WNW 13.8 mph - N/A   Overcast
10:36 AM 51.8 °F 50.0 °F 94% 29.60 in 1.0 mi WNW 10.4 mph - N/A   Overcast
10:56 AM 53.6 °F 51.8 °F 94% 29.59 in 1.0 mi NW 12.7 mph 17.3 mph N/A   Overcast
11:16 AM 53.6 °F 50.0 °F 88% 29.59 in 1.2 mi WNW 12.7 mph - N/A   Overcast
11:36 AM 51.8 °F 50.0 °F 94% 29.59 in 1.0 mi WNW 15.0 mph 20.7 mph N/A   Overcast
11:56 AM 51.8 °F 48.2 °F 88% 29.59 in 0.8 mi WNW 17.3 mph - N/A   Overcast
12:16 PM 51.8 °F 48.2 °F 88% 29.58 in 1.2 mi WNW 13.8 mph - N/A   Overcast
12:36 PM 51.8 °F 48.2 °F 88% 29.58 in 1.5 mi WNW 18.4 mph 25.3 mph N/A   Overcast
12:56 PM 51.8 °F 48.2 °F 88% 29.58 in 4.0 mi WNW 18.4 mph 24.2 mph N/A   Overcast
1:16 PM 51.8 °F 48.2 °F 88% 29.58 in 4.0 mi WNW 18.4 mph 24.2 mph N/A   Overcast
1:36 PM 51.8 °F 48.2 °F 88% 29.58 in 4.0 mi WNW 16.1 mph 20.7 mph N/A   Overcast
1:56 PM 51.8 °F 48.2 °F 88% 29.59 in 3.0 mi WNW 15.0 mph - N/A   Overcast
2:16 PM 51.8 °F 48.2 °F 88% 29.58 in 5.0 mi WNW 16.1 mph 23.0 mph N/A   Overcast
2:36 PM 51.8 °F 48.2 °F 88% 29.58 in 1.2 mi West 13.8 mph 17.3 mph N/A   Overcast
2:56 PM 51.8 °F 48.2 °F 88% 29.57 in 1.2 mi WNW 15.0 mph - N/A   Overcast
3:16 PM 50.0 °F 48.2 °F 94% 29.58 in 2.5 mi WNW 12.7 mph - N/A   Overcast
3:36 PM 51.8 °F 48.2 °F 88% 29.57 in 0.8 mi WNW 12.7 mph 18.4 mph N/A   Overcast
3:56 PM 51.8 °F 50.0 °F 94% 29.57 in 1.2 mi West 15.0 mph 20.7 mph N/A   Overcast
4:16 PM 51.8 °F 48.2 °F 88% 29.58 in 1.2 mi West 16.1 mph 19.6 mph N/A   Overcast
4:36 PM 51.8 °F 48.2 °F 88% 29.58 in 1.8 mi West 16.1 mph - N/A   Overcast
4:56 PM 51.8 °F 48.2 °F 88% 29.58 in 1.2 mi West 13.8 mph - N/A   Overcast
5:16 PM 51.8 °F 48.2 °F 88% 29.58 in 1.0 mi West 15.0 mph - N/A   Overcast
5:36 PM 51.8 °F 48.2 °F 88% 29.58 in 0.8 mi WNW 13.8 mph - N/A   Overcast
5:56 PM 51.8 °F 48.2 °F 88% 29.59 in 0.8 mi West 16.1 mph - N/A   Overcast
6:16 PM 51.8 °F 48.2 °F 88% 29.59 in 0.8 mi West 18.4 mph - N/A   Overcast
6:36 PM 51.8 °F 48.2 °F 88% 29.58 in 0.8 mi West 15.0 mph 23.0 mph N/A   Overcast
6:56 PM 51.8 °F 48.2 °F 88% 29.59 in 3.0 mi WNW 17.3 mph 20.7 mph N/A   Overcast
7:16 PM 51.8 °F 48.2 °F 88% 29.59 in 8.0 mi WNW 16.1 mph 21.9 mph N/A   Overcast
7:36 PM 51.8 °F 48.2 °F 88% 29.60 in 5.0 mi WNW 15.0 mph 20.7 mph N/A   Overcast
7:56 PM 51.8 °F 48.2 °F 88% 29.60 in 10.0 mi NW 16.1 mph - N/A   Overcast
8:16 PM 51.8 °F 48.2 °F 88% 29.60 in 10.0 mi NW 15.0 mph 21.9 mph N/A   Overcast
8:36 PM 51.8 °F 48.2 °F 88% 29.61 in 10.0 mi NW 13.8 mph 18.4 mph N/A   Overcast
8:56 PM 51.8 °F 46.4 °F 82% 29.62 in 10.0 mi WNW 16.1 mph - N/A   Overcast
9:16 PM 51.8 °F 46.4 °F 82% 29.62 in 10.0 mi NNW 15.0 mph - N/A   Overcast
9:36 PM 50.0 °F 46.4 °F 87% 29.63 in 10.0 mi WNW 15.0 mph 19.6 mph N/A   Overcast
9:56 PM 51.8 °F 44.6 °F 76% 29.63 in 10.0 mi NW 12.7 mph - N/A   Overcast
10:16 PM 50.0 °F 44.6 °F 82% 29.64 in 10.0 mi NW 15.0 mph 20.7 mph N/A   Overcast
10:36 PM 50.0 °F 46.4 °F 87% 29.65 in 10.0 mi WNW 13.8 mph 18.4 mph N/A   Overcast
10:56 PM 50.0 °F 44.6 °F 82% 29.65 in 10.0 mi NW 10.4 mph - N/A   Overcast
11:16 PM 50.0 °F 44.6 °F 82% 29.66 in 10.0 mi NW 10.4 mph - N/A   Overcast
11:36 PM 50.0 °F 44.6 °F 82% 29.66 in 10.0 mi WNW 11.5 mph - N/A   Overcast
11:56 PM 50.0 °F 44.6 °F 82% 29.66 in 10.0 mi WNW 15.0 mph - N/A   Overcast